Location: Wildcat Hills Observatory
(41.6350°N, 103.6812°W)
Time: 21:19:39
(UTC-06:00)

Cosmos 1634 Rocket - Visible Passes

Search period start: 29 April 2016 00:00
Search period end: 09 May 2016 00:00
Orbit: 960 x 992 km, 82.9° (Epoch: 29 April)

Date Brightness Start Highest point End Pass type
(mag) Time Alt. Az. Time Alt. Az. Time Alt. Az.
29 Apr 4.2 01:35:40 10° N 01:40:52 64° NNW 01:40:52 64° NNW visible
29 Apr 6.0 03:24:24 10° WNW 03:25:32 11° WNW 03:25:32 11° WNW visible
30 Apr 5.4 00:16:35 10° NNE 00:21:35 27° ENE 00:21:35 27° ENE visible
30 Apr 4.7 02:01:28 10° NNW 02:06:15 42° WNW 02:06:15 42° WNW visible
01 May 4.7 00:41:38 10° N 00:46:58 46° ENE 00:46:58 46° ENE visible
01 May 5.4 02:27:41 10° NNW 02:31:39 25° WNW 02:31:39 25° WNW visible
01 May 6.1 23:24:17 10° NE 23:26:54 13° ENE 23:27:43 12° ENE visible
02 May 4.2 01:07:02 10° N 01:12:23 67° N 01:12:23 67° N visible
02 May 5.9 02:54:53 10° NW 02:57:03 13° WNW 02:57:03 13° WNW visible
02 May 5.5 23:48:11 10° NNE 23:53:01 23° ENE 23:53:07 23° ENE visible
03 May 4.5 01:32:45 10° NNW 01:37:48 49° WNW 01:37:48 49° WNW visible
04 May 4.8 00:13:06 10° N 00:18:33 40° ENE 00:18:33 40° ENE visible
04 May 5.2 01:58:51 10° NNW 02:03:13 28° WNW 02:03:13 28° WNW visible
04 May 6.2 22:56:46 10° NE 22:58:06 11° ENE 22:59:18 10° ENE visible
05 May 4.1 00:38:25 10° N 00:43:59 67° NE 00:43:59 67° NE visible
05 May 5.8 02:25:41 10° NW 02:28:40 16° WNW 02:28:40 16° WNW visible
05 May 5.6 23:19:50 10° NNE 23:24:16 20° ENE 23:24:45 20° ENE visible
06 May 4.3 01:04:04 10° NNW 01:09:26 58° WNW 01:09:26 58° WNW visible
06 May 4.9 23:44:35 10° N 23:50:13 35° ENE 23:50:13 35° ENE visible
07 May 5.0 01:30:04 10° NNW 01:34:53 33° WNW 01:34:53 33° WNW visible
08 May 4.1 00:09:50 10° N 00:15:41 63° ENE 00:15:41 63° ENE visible
08 May 5.7 01:56:38 10° NW 02:00:21 19° WNW 02:00:21 19° WNW visible
08 May 5.7 22:51:33 10° NNE 22:55:31 17° ENE 22:56:29 17° ENE visible
